| time (UTC) | temp F | wind direction | speed MPH | gust MPH | rain 1hr in | rain 24hr in | rain mn in | humidity % | barometer mb |
| 20260831195803 | 64 | 66 | 0.0 | 0.0 | 0.00 | 0.20 | 0.20 | 77 | 1019.9 |
| 20260831195306 | 64 | 66 | 0.0 | 0.0 | 0.00 | 0.20 | 0.20 | 76 | 1019.8 |
| 20260831194803 | 65 | 306 | 0.0 | 0.0 | 0.00 | 0.20 | 0.20 | 75 | 1019.8 |
| 20260831194303 | 65 | 226 | 0.0 | 0.0 | 0.00 | 0.20 | 0.20 | 75 | 1019.8 |
| 20260831193803 | 65 | 226 | 0.0 | 0.0 | 0.00 | 0.20 | 0.20 | 75 | 1019.8 |
| 20260831193304 | 65 | 226 | 0.0 | 0.0 | 0.00 | 0.20 | 0.20 | 74 | 1019.7 |
| 20260831192803 | 66 | 226 | 0.0 | 1.0 | 0.00 | 0.20 | 0.20 | 73 | 1019.7 |
| 20260831192305 | 66 | 177 | 1.0 | 5.0 | 0.00 | 0.20 | 0.20 | 72 | 1019.7 |
| 20260831191304 | 66 | 269 | 0.0 | 5.0 | 0.00 | 0.20 | 0.20 | 73 | 1019.7 |
| 20260831190804 | 67 | 320 | 2.0 | 9.0 | 0.00 | 0.20 | 0.20 | 72 | 1019.7 |
| 20260831190304 | 67 | 268 | 1.0 | 7.0 | 0.00 | 0.20 | 0.20 | 72 | 1019.7 |
| 20260831185306 | 67 | 257 | 2.0 | 9.0 | 0.00 | 0.20 | 0.20 | 73 | 1019.5 |
| 20260831184804 | 67 | 221 | 0.0 | 2.0 | 0.00 | 0.20 | 0.20 | 73 | 1018.5 |
| 20260831183804 | 67 | 327 | 0.0 | 5.0 | 0.00 | 0.20 | 0.20 | 73 | 1018.5 |
| 20260831183303 | 67 | 270 | 1.0 | 5.0 | 0.00 | 0.20 | 0.20 | 73 | 1018.5 |
| 20260831182804 | 67 | 0 | 0.0 | 3.0 | 0.00 | 0.20 | 0.20 | 73 | 1018.5 |
| 20260831182305 | 67 | 255 | 1.0 | 7.0 | 0.00 | 0.20 | 0.20 | 74 | 1018.5 |
| 20260831181804 | 68 | 313 | 1.0 | 3.0 | 0.00 | 0.20 | 0.20 | 74 | 1018.5 |
| 20260831180804 | 68 | 269 | 0.0 | 1.0 | 0.00 | 0.20 | 0.20 | 73 | 1018.5 |
| 20260831180304 | 67 | 223 | 0.0 | 5.0 | 0.00 | 0.20 | 0.20 | 74 | 1018.5 |
| 20260831175805 | 67 | 296 | 0.0 | 0.0 | 0.00 | 0.20 | 0.20 | 77 | 1018.5 |
| 20260831175306 | 68 | 296 | 0.0 | 0.0 | 0.00 | 0.20 | 0.20 | 76 | 1018.5 |
| 20260831174804 | 68 | 305 | 0.0 | 5.0 | 0.00 | 0.20 | 0.20 | 76 | 1018.7 |
| 20260831174303 | 68 | 257 | 1.0 | 6.0 | 0.00 | 0.20 | 0.20 | 74 | 1018.7 |
| 20260831173803 | 68 | 292 | 1.0 | 6.0 | 0.00 | 0.20 | 0.20 | 73 | 1018.7 |
| 20260831173304 | 68 | 294 | 1.0 | 6.0 | 0.00 | 0.20 | 0.20 | 74 | 1017.9 |
| 20260831172804 | 68 | 301 | 0.0 | 1.0 | 0.00 | 0.20 | 0.20 | 74 | 1017.9 |
| 20260831172306 | 69 | 280 | 0.0 | 2.0 | 0.00 | 0.20 | 0.20 | 73 | 1017.9 |
| 20260831171804 | 69 | 271 | 0.0 | 1.0 | 0.00 | 0.20 | 0.20 | 71 | 1017.9 |
| 20260831171304 | 69 | 284 | 0.0 | 2.0 | 0.00 | 0.20 | 0.20 | 71 | 1017.9 |
| 20260831170803 | 69 | 220 | 0.0 | 0.0 | 0.00 | 0.20 | 0.20 | 72 | 1017.9 |
| 20260831165804 | 69 | 281 | 0.0 | 0.0 | 0.00 | 0.20 | 0.20 | 71 | 1017.7 |
| 20260831165305 | 69 | 309 | 0.0 | 2.0 | 0.00 | 0.20 | 0.20 | 71 | 1017.7 |
| 20260831164803 | 69 | 258 | 0.0 | 2.0 | 0.00 | 0.20 | 0.20 | 71 | 1017.4 |
| 20260831164304 | 69 | 303 | 1.0 | 5.0 | 0.00 | 0.20 | 0.20 | 70 | 1017.4 |
| 20260831163803 | 70 | 295 | 0.0 | 6.0 | 0.00 | 0.20 | 0.20 | 69 | 1017.4 |
| 20260831163304 | 70 | 273 | 1.0 | 8.0 | 0.00 | 0.20 | 0.20 | 67 | 1017.4 |
| 20260831162804 | 71 | 333 | 2.0 | 9.0 | 0.00 | 0.20 | 0.20 | 64 | 1017.4 |
| 20260831161804 | 74 | 301 | 0.0 | 3.0 | 0.00 | 0.20 | 0.20 | 59 | 1017.4 |
| 20260831160303 | 74 | 290 | 0.0 | 13.0 | 0.00 | 0.20 | 0.20 | 61 | 1017.2 |
| 20260831155306 | 75 | 256 | 2.0 | 7.0 | 0.00 | 0.20 | 0.20 | 58 | 1017.2 |
| 20260831154804 | 77 | 272 | 2.0 | 5.0 | 0.00 | 0.20 | 0.20 | 56 | 1017.2 |
| 20260831154303 | 77 | 287 | 0.0 | 5.0 | 0.00 | 0.20 | 0.20 | 55 | 1017.2 |
| 20260831153803 | 77 | 284 | 2.0 | 7.0 | 0.00 | 0.20 | 0.20 | 55 | 1017.2 |
| 20260831152804 | 77 | 334 | 1.0 | 7.0 | 0.00 | 0.20 | 0.20 | 56 | 1016.7 |
| 20260831152306 | 77 | 285 | 0.0 | 5.0 | 0.00 | 0.20 | 0.20 | 55 | 1016.7 |
| 20260831151803 | 76 | 279 | 0.0 | 5.0 | 0.00 | 0.20 | 0.20 | 56 | 1016.7 |
| 20260831150803 | 74 | 275 | 1.0 | 6.0 | 0.00 | 0.20 | 0.20 | 58 | 1016.7 |
| 20260831150304 | 74 | 239 | 1.0 | 7.0 | 0.00 | 0.20 | 0.20 | 57 | 1016.7 |
| 20260831145803 | 75 | 258 | 2.0 | 9.0 | 0.00 | 0.20 | 0.20 | 57 | 1016.7 |
| 20260831145306 | 75 | 308 | 1.0 | 6.0 | 0.00 | 0.20 | 0.20 | 58 | 1016.7 |
| 20260831144804 | 75 | 302 | 1.0 | 7.0 | 0.00 | 0.20 | 0.20 | 56 | 1016.7 |
| 20260831144303 | 76 | 192 | 2.0 | 10.0 | 0.00 | 0.20 | 0.20 | 54 | 1016.7 |
| 20260831143804 | 78 | 336 | 1.0 | 7.0 | 0.00 | 0.20 | 0.20 | 53 | 1016.7 |
| 20260831143303 | 78 | 305 | 1.0 | 5.0 | 0.00 | 0.20 | 0.20 | 54 | 1016.9 |
| 20260831142803 | 77 | 247 | 1.0 | 10.0 | 0.00 | 0.20 | 0.20 | 53 | 1016.9 |
| 20260831142306 | 77 | 267 | 1.0 | 12.0 | 0.00 | 0.20 | 0.20 | 52 | 1016.9 |
| 20260831141804 | 77 | 267 | 0.0 | 3.0 | 0.00 | 0.20 | 0.20 | 52 | 1016.9 |
| 20260831141304 | 76 | 291 | 0.0 | 5.0 | 0.00 | 0.20 | 0.20 | 55 | 1016.9 |
| 20260831140803 | 76 | 106 | 1.0 | 3.0 | 0.00 | 0.20 | 0.20 | 54 | 1016.9 |
| 20260831140304 | 76 | 228 | 1.0 | 5.0 | 0.00 | 0.20 | 0.20 | 52 | 1016.9 |
| 20260831135804 | 77 | 333 | 1.0 | 8.0 | 0.00 | 0.20 | 0.20 | 53 | 1016.9 |
| 20260831134803 | 75 | 222 | 2.0 | 5.0 | 0.00 | 0.20 | 0.20 | 54 | 1017.0 |
| 20260831133803 | 76 | 322 | 1.0 | 7.0 | 0.00 | 0.20 | 0.20 | 54 | 1017.0 |
| 20260831133304 | 77 | 260 | 1.0 | 6.0 | 0.00 | 0.20 | 0.20 | 53 | 1017.0 |
| 20260831132803 | 77 | 299 | 2.0 | 9.0 | 0.00 | 0.20 | 0.20 | 51 | 1017.0 |
| 20260831132306 | 78 | 285 | 2.0 | 7.0 | 0.00 | 0.20 | 0.20 | 52 | 1017.0 |
| 20260831131804 | 78 | 287 | 2.0 | 6.0 | 0.00 | 0.20 | 0.20 | 52 | 1017.0 |
| 20260831131305 | 77 | 226 | 1.0 | 5.0 | 0.00 | 0.20 | 0.20 | 52 | 1017.2 |
| 20260831130803 | 78 | 274 | 0.0 | 3.0 | 0.00 | 0.20 | 0.20 | 51 | 1017.2 |
| 20260831130304 | 79 | 240 | 2.0 | 8.0 | 0.00 | 0.20 | 0.20 | 51 | 1017.4 |
| 20260831125306 | 77 | 284 | 3.0 | 8.0 | 0.00 | 0.20 | 0.20 | 51 | 1017.4 |
| 20260831124803 | 77 | 317 | 2.0 | 9.0 | 0.00 | 0.20 | 0.20 | 54 | 1017.4 |
| 20260831124303 | 77 | 126 | 1.0 | 5.0 | 0.00 | 0.20 | 0.20 | 54 | 1017.4 |
| 20260831123804 | 77 | 353 | 1.0 | 10.0 | 0.00 | 0.20 | 0.20 | 53 | 1017.4 |
| 20260831123303 | 77 | 119 | 3.0 | 10.0 | 0.00 | 0.20 | 0.20 | 52 | 1017.4 |
| 20260831122803 | 77 | 43 | 2.0 | 12.0 | 0.00 | 0.20 | 0.20 | 52 | 1017.4 |
| 20260831122306 | 78 | 313 | 1.0 | 6.0 | 0.00 | 0.20 | 0.20 | 53 | 1017.4 |
| 20260831120804 | 76 | 319 | 2.0 | 12.0 | 0.00 | 0.20 | 0.20 | 58 | 1017.4 |
| 20260831120303 | 76 | 268 | 2.0 | 9.0 | 0.00 | 0.20 | 0.20 | 58 | 1017.4 |
| 20260831115803 | 75 | 200 | 0.0 | 3.0 | 0.00 | 0.20 | 0.20 | 61 | 1017.4 |
| 20260831115306 | 74 | 264 | 1.0 | 6.0 | 0.00 | 0.20 | 0.20 | 59 | 1017.4 |
| 20260831114804 | 75 | 328 | 1.0 | 10.0 | 0.00 | 0.20 | 0.20 | 58 | 1017.4 |
| 20260831114303 | 76 | 88 | 1.0 | 5.0 | 0.00 | 0.20 | 0.20 | 56 | 1017.4 |
| 20260831113803 | 77 | 307 | 2.0 | 12.0 | 0.00 | 0.20 | 0.20 | 56 | 1017.4 |
| 20260831113304 | 76 | 286 | 1.0 | 6.0 | 0.00 | 0.20 | 0.20 | 57 | 1017.5 |
| 20260831112804 | 76 | 321 | 2.0 | 10.0 | 0.00 | 0.20 | 0.20 | 57 | 1017.5 |
| 20260831112307 | 74 | 314 | 3.0 | 9.0 | 0.00 | 0.20 | 0.20 | 59 | 1017.5 |
| 20260831111803 | 74 | 246 | 0.0 | 7.0 | 0.00 | 0.20 | 0.20 | 60 | 1017.5 |
| 20260831111303 | 75 | 276 | 2.0 | 13.0 | 0.00 | 0.20 | 0.20 | 58 | 1017.5 |
| 20260831110803 | 77 | 275 | 2.0 | 8.0 | 0.00 | 0.20 | 0.20 | 57 | 1017.5 |
| 20260831110303 | 77 | 256 | 3.0 | 10.0 | 0.00 | 0.20 | 0.20 | 55 | 1017.5 |
| 20260831105306 | 75 | 333 | 1.0 | 13.0 | 0.00 | 0.20 | 0.20 | 60 | 1017.7 |
| 20260831104805 | 75 | 342 | 2.0 | 10.0 | 0.00 | 0.20 | 0.20 | 60 | 1017.7 |
| 20260831104304 | 76 | 298 | 1.0 | 7.0 | 0.00 | 0.20 | 0.20 | 59 | 1017.6 |
| 20260831103304 | 76 | 297 | 3.0 | 9.0 | 0.00 | 0.20 | 0.20 | 58 | 1017.6 |
| 20260831102804 | 77 | 326 | 2.0 | 5.0 | 0.00 | 0.20 | 0.20 | 61 | 1017.6 |
| 20260831102306 | 76 | 271 | 1.0 | 8.0 | 0.00 | 0.20 | 0.20 | 59 | 1017.6 |
| 20260831101804 | 76 | 332 | 1.0 | 7.0 | 0.00 | 0.20 | 0.20 | 62 | 1017.6 |
| 20260831101303 | 77 | 284 | 2.0 | 10.0 | 0.00 | 0.20 | 0.20 | 59 | 1017.6 |
| 20260831100804 | 77 | 294 | 1.0 | 6.0 | 0.00 | 0.20 | 0.20 | 59 | 1017.6 |
| 20260831100303 | 76 | 119 | 0.0 | 6.0 | 0.00 | 0.20 | 0.20 | 65 | 1017.6 |
| 20260831095804 | 75 | 8 | 1.0 | 9.0 | 0.00 | 0.20 | 0.20 | 61 | 1017.7 |
| 20260831095306 | 75 | 283 | 1.0 | 5.0 | 0.00 | 0.20 | 0.20 | 63 | 1017.7 |
| 20260831094803 | 75 | 304 | 1.0 | 5.0 | 0.00 | 0.20 | 0.20 | 63 | 1017.7 |
| 20260831094304 | 73 | 289 | 1.0 | 5.0 | 0.00 | 0.20 | 0.20 | 70 | 1017.7 |
| 20260831093803 | 71 | 228 | 0.0 | 3.0 | 0.00 | 0.20 | 0.20 | 69 | 1017.7 |
| 20260831093303 | 71 | 354 | 1.0 | 5.0 | 0.00 | 0.20 | 0.20 | 70 | 1017.6 |
| 20260831092804 | 72 | 288 | 2.0 | 5.0 | 0.00 | 0.20 | 0.20 | 68 | 1017.6 |
| 20260831092306 | 73 | 274 | 1.0 | 7.0 | 0.00 | 0.20 | 0.20 | 66 | 1017.6 |
| 20260831091803 | 74 | 340 | 0.0 | 5.0 | 0.00 | 0.20 | 0.20 | 66 | 1017.6 |
| 20260831091304 | 73 | 35 | 0.0 | 3.0 | 0.00 | 0.20 | 0.20 | 68 | 1017.6 |
| 20260831090804 | 72 | 0 | 1.0 | 8.0 | 0.00 | 0.20 | 0.20 | 70 | 1017.6 |
| 20260831090304 | 72 | 309 | 1.0 | 5.0 | 0.00 | 0.20 | 0.20 | 70 | 1017.6 |
| 20260831085803 | 71 | 239 | 0.0 | 3.0 | 0.00 | 0.20 | 0.20 | 70 | 1017.6 |
| 20260831085306 | 70 | 201 | 0.0 | 2.0 | 0.00 | 0.20 | 0.20 | 72 | 1017.5 |
| 20260831084804 | 71 | 336 | 0.0 | 3.0 | 0.00 | 0.20 | 0.20 | 73 | 1017.5 |
| 20260831084303 | 70 | 319 | 0.0 | 3.0 | 0.00 | 0.20 | 0.20 | 75 | 1017.5 |
| 20260831083804 | 71 | 280 | 1.0 | 5.0 | 0.00 | 0.20 | 0.20 | 76 | 1017.5 |
| 20260831083303 | 71 | 282 | 1.0 | 6.0 | 0.00 | 0.20 | 0.20 | 72 | 1017.5 |
| 20260831082803 | 70 | 324 | 1.0 | 5.0 | 0.00 | 0.20 | 0.20 | 74 | 1017.5 |
| 20260831082306 | 70 | 289 | 2.0 | 6.0 | 0.00 | 0.20 | 0.20 | 75 | 1017.4 |
| 20260831081804 | 69 | 334 | 0.0 | 9.0 | 0.00 | 0.20 | 0.20 | 75 | 1017.4 |
| 20260831080804 | 70 | 310 | 0.0 | 9.0 | 0.00 | 0.20 | 0.20 | 75 | 1016.7 |
| 20260831080304 | 70 | 315 | 1.0 | 7.0 | 0.00 | 0.20 | 0.20 | 75 | 1016.7 |
| 20260831075804 | 69 | 295 | 1.0 | 6.0 | 0.00 | 0.20 | 0.20 | 74 | 1016.7 |
| 20260831075306 | 69 | 313 | 2.0 | 5.0 | 0.00 | 0.20 | 0.20 | 79 | 1016.7 |
| 20260831074804 | 69 | 286 | 1.0 | 8.0 | 0.00 | 0.20 | 0.20 | 77 | 1016.7 |
| 20260831073803 | 68 | 275 | 1.0 | 5.0 | 0.00 | 0.20 | 0.20 | 80 | 1016.7 |
| 20260831071803 | 67 | 294 | 0.0 | 2.0 | 0.00 | 0.20 | 0.20 | 85 | 1016.7 |
| 20260831071305 | 67 | 310 | 0.0 | 1.0 | 0.00 | 0.20 | 0.20 | 89 | 1016.7 |
| 20260831070803 | 67 | 270 | 0.0 | 1.0 | 0.00 | 0.20 | 0.20 | 86 | 1016.7 |
| 20260831070304 | 66 | 318 | 0.0 | 1.0 | 0.00 | 0.20 | 0.20 | 89 | 1016.7 |
| 20260831065804 | 66 | 288 | 0.0 | 1.0 | 0.00 | 0.20 | 0.20 | 91 | 1016.7 |
| 20260831064804 | 65 | 298 | 0.0 | 3.0 | 0.00 | 0.20 | 0.20 | 92 | 1016.7 |
| 20260831064303 | 65 | 250 | 0.0 | 0.0 | 0.00 | 0.20 | 0.20 | 93 | 1016.7 |
| 20260831063803 | 65 | 248 | 0.0 | 1.0 | 0.00 | 0.20 | 0.20 | 94 | 1016.7 |
| 20260831063304 | 64 | 302 | 0.0 | 1.0 | 0.00 | 0.20 | 0.20 | 95 | 1016.7 |
| 20260831062804 | 64 | 129 | 0.0 | 0.0 | 0.00 | 0.20 | 0.20 | 95 | 1016.7 |
| 20260831062305 | 64 | 140 | 0.0 | 0.0 | 0.00 | 0.20 | 0.20 | 95 | 1016.7 |
| 20260831061804 | 63 | 175 | 0.0 | 0.0 | 0.00 | 0.20 | 0.20 | 97 | 1016.7 |
| 20260831060804 | 62 | 175 | 0.0 | 0.0 | 0.00 | 0.20 | 0.20 | 100 | 1016.7 |
| 20260831060303 | 62 | 250 | 0.0 | 0.0 | 0.00 | 0.20 | 0.20 | 100 | 1016.7 |
| 20260831055804 | 62 | 250 | 0.0 | 0.0 | 0.00 | 0.20 | 0.20 | 100 | 1016.7 |
| 20260831055306 | 62 | 250 | 0.0 | 0.0 | 0.00 | 0.20 | 0.20 | 100 | 1016.7 |
| 20260831054803 | 61 | 250 | 0.0 | 0.0 | 0.00 | 0.20 | 0.20 | 100 | 1016.7 |
| 20260831054304 | 61 | 250 | 0.0 | 0.0 | 0.00 | 0.20 | 0.20 | 100 | 1016.7 |
| 20260831053804 | 61 | 250 | 0.0 | 0.0 | 0.00 | 0.20 | 0.20 | 100 | 1016.7 |
| 20260831053303 | 61 | 250 | 0.0 | 0.0 | 0.00 | 0.20 | 0.20 | 100 | 1016.7 |
| 20260831052804 | 61 | 250 | 0.0 | 0.0 | 0.00 | 0.20 | 0.20 | 100 | 1016.4 |
| 20260831052306 | 61 | 250 | 0.0 | 0.0 | 0.00 | 0.20 | 0.20 | 99 | 1016.4 |
| 20260831051804 | 62 | 250 | 0.0 | 0.0 | 0.00 | 0.20 | 0.20 | 98 | 1016.4 |
| 20260831051304 | 62 | 250 | 0.0 | 0.0 | 0.00 | 0.20 | 0.20 | 98 | 1016.4 |
| 20260831050804 | 62 | 250 | 0.0 | 0.0 | 0.00 | 0.20 | 0.20 | 98 | 1016.4 |
| 20260831050303 | 62 | 204 | 0.0 | 0.0 | 0.00 | 0.20 | 0.20 | 98 | 1016.4 |
| 20260831045803 | 62 | 204 | 0.0 | 5.0 | 0.00 | 0.20 | 0.20 | 98 | 1016.2 |
| 20260831045306 | 62 | 260 | 0.0 | 0.0 | 0.00 | 0.20 | 0.20 | 98 | 1016.2 |
| 20260831044804 | 62 | 260 | 0.0 | 0.0 | 0.00 | 0.20 | 0.20 | 98 | 1016.2 |
| 20260831044304 | 62 | 260 | 0.0 | 1.0 | 0.00 | 0.20 | 0.20 | 98 | 1016.2 |
| 20260831043804 | 62 | 344 | 0.0 | 0.0 | 0.00 | 0.20 | 0.20 | 98 | 1016.2 |
| 20260831043303 | 62 | 344 | 0.0 | 0.0 | 0.00 | 0.20 | 0.20 | 98 | 1016.2 |
| 20260831042803 | 63 | 344 | 0.0 | 0.0 | 0.00 | 0.20 | 0.20 | 99 | 1016.2 |
| 20260831042307 | 63 | 85 | 0.0 | 0.0 | 0.00 | 0.20 | 0.20 | 99 | 1016.2 |
| 20260831041304 | 63 | 98 | 0.0 | 0.0 | 0.00 | 0.20 | 0.20 | 100 | 1016.2 |
| 20260831040804 | 63 | 97 | 0.0 | 0.0 | 0.00 | 0.20 | 0.20 | 100 | 1016.2 |
| 20260831040303 | 62 | 97 | 0.0 | 0.0 | 0.00 | 0.20 | 0.20 | 100 | 1016.0 |
| 20260831035804 | 62 | 97 | 0.0 | 0.0 | 0.00 | 0.20 | 0.20 | 100 | 1015.7 |
| 20260831035306 | 62 | 97 | 0.0 | 0.0 | 0.00 | 0.20 | 0.20 | 100 | 1015.7 |
| 20260831034804 | 62 | 97 | 0.0 | 0.0 | 0.00 | 0.20 | 0.20 | 100 | 1015.7 |
| 20260831034304 | 62 | 97 | 0.0 | 0.0 | 0.00 | 0.20 | 0.20 | 100 | 1015.7 |
| 20260831032804 | 62 | 97 | 0.0 | 0.0 | 0.00 | 0.20 | 0.20 | 100 | 1015.6 |
| 20260831031803 | 62 | 97 | 0.0 | 0.0 | 0.00 | 0.20 | 0.20 | 100 | 1015.5 |
| 20260831025803 | 62 | 97 | 0.0 | 0.0 | 0.01 | 0.20 | 0.20 | 100 | 1015.5 |
| 20260831025306 | 62 | 97 | 0.0 | 0.0 | 0.01 | 0.20 | 0.20 | 100 | 1015.3 |
| 20260831024804 | 62 | 98 | 0.0 | 0.0 | 0.01 | 0.20 | 0.20 | 100 | 1015.3 |
| 20260831024304 | 62 | 98 | 0.0 | 0.0 | 0.01 | 0.20 | 0.20 | 100 | 1015.3 |
| 20260831023804 | 62 | 98 | 0.0 | 0.0 | 0.01 | 0.20 | 0.20 | 100 | 1015.3 |
| 20260831023303 | 62 | 98 | 0.0 | 0.0 | 0.01 | 0.20 | 0.20 | 100 | 1015.4 |
| 20260831022306 | 62 | 98 | 0.0 | 0.0 | 0.01 | 0.20 | 0.20 | 100 | 1015.4 |
| 20260831021804 | 62 | 98 | 0.0 | 0.0 | 0.01 | 0.20 | 0.20 | 100 | 1015.4 |
| 20260831021303 | 62 | 98 | 0.0 | 0.0 | 0.01 | 0.20 | 0.20 | 100 | 1015.2 |
| 20260831020804 | 62 | 98 | 0.0 | 0.0 | 0.02 | 0.20 | 0.20 | 100 | 1015.1 |
| 20260831020304 | 62 | 98 | 0.0 | 0.0 | 0.01 | 0.19 | 0.19 | 99 | 1014.9 |
| 20260831015804 | 62 | 98 | 0.0 | 0.0 | 0.01 | 0.19 | 0.19 | 99 | 1014.9 |
| 20260831015305 | 62 | 98 | 0.0 | 0.0 | 0.01 | 0.19 | 0.19 | 99 | 1014.9 |
| 20260831014804 | 62 | 97 | 0.0 | 0.0 | 0.01 | 0.19 | 0.19 | 99 | 1014.9 |
| 20260831014304 | 62 | 98 | 0.0 | 0.0 | 0.02 | 0.19 | 0.19 | 99 | 1015.4 |
| 20260831013804 | 63 | 101 | 0.0 | 0.0 | 0.02 | 0.19 | 0.19 | 99 | 1015.4 |
| 20260831012803 | 63 | 189 | 0.0 | 0.0 | 0.06 | 0.19 | 0.19 | 98 | 1015.4 |
| 20260831012306 | 63 | 150 | 0.0 | 0.0 | 0.06 | 0.19 | 0.19 | 98 | 1015.4 |
| 20260831011803 | 63 | 165 | 0.0 | 0.0 | 0.09 | 0.19 | 0.19 | 98 | 1015.5 |
| 20260831011304 | 63 | 113 | 0.0 | 2.0 | 0.18 | 0.19 | 0.19 | 98 | 1015.5 |
| 20260831010804 | 63 | 69 | 0.0 | 1.0 | 0.18 | 0.18 | 0.18 | 98 | 1015.1 |
| 20260831010304 | 63 | 105 | 0.0 | 1.0 | 0.18 | 0.18 | 0.18 | 98 | 1015.1 |
| 20260831005804 | 63 | 115 | 0.0 | 1.0 | 0.18 | 0.18 | 0.18 | 98 | 1015.1 |
| 20260831005306 | 63 | 146 | 0.0 | 1.0 | 0.18 | 0.18 | 0.18 | 98 | 1015.1 |
| 20260831004804 | 63 | 355 | 0.0 | 0.0 | 0.18 | 0.18 | 0.18 | 98 | 1015.1 |
| 20260831004303 | 63 | 266 | 0.0 | 1.0 | 0.17 | 0.17 | 0.17 | 98 | 1015.1 |
| 20260831003303 | 63 | 354 | 0.0 | 3.0 | 0.15 | 0.15 | 0.15 | 97 | 1015.1 |
| 20260831002804 | 63 | 261 | 1.0 | 5.0 | 0.13 | 0.13 | 0.13 | 97 | 1015.1 |
| 20260831001803 | 63 | 333 | 1.0 | 5.0 | 0.09 | 0.09 | 0.09 | 97 | 1015.1 |
| 20260831001304 | 62 | 308 | 1.0 | 9.0 | 0.01 | 0.01 | 0.01 | 94 | 1015.1 |
| 20260831000804 | 61 | 260 | 0.0 | 0.0 | 0.00 | 0.00 | 0.00 | 95 | 1013.6 |
| 20260831000304 | 60 | 260 | 0.0 | 0.0 | 0.00 | 0.00 | 0.00 | 96 | 1013.6 |
| 20260830235306 | 60 | 260 | 0.0 | 0.0 | 0.00 | 0.00 | 0.00 | 96 | 1013.7 |
| 20260830234804 | 60 | 260 | 0.0 | 0.0 | 0.00 | 0.00 | 0.00 | 96 | 1013.7 |
| 20260830234305 | 60 | 260 | 0.0 | 0.0 | 0.00 | 0.00 | 0.00 | 95 | 1013.7 |
| 20260830233804 | 60 | 260 | 0.0 | 0.0 | 0.00 | 0.00 | 0.00 | 96 | 1013.7 |
| 20260830233304 | 60 | 260 | 0.0 | 0.0 | 0.00 | 0.00 | 0.00 | 95 | 1013.9 |
| 20260830232803 | 60 | 260 | 0.0 | 0.0 | 0.00 | 0.00 | 0.00 | 95 | 1013.9 |
| 20260830232306 | 60 | 260 | 0.0 | 0.0 | 0.00 | 0.00 | 0.00 | 95 | 1013.9 |
| 20260830231803 | 60 | 260 | 0.0 | 0.0 | 0.00 | 0.00 | 0.00 | 94 | 1013.9 |
| 20260830231304 | 60 | 260 | 0.0 | 0.0 | 0.00 | 0.00 | 0.00 | 94 | 1013.9 |
| 20260830230804 | 60 | 260 | 0.0 | 0.0 | 0.00 | 0.00 | 0.00 | 95 | 1013.9 |
| 20260830230304 | 60 | 260 | 0.0 | 0.0 | 0.00 | 0.00 | 0.00 | 94 | 1013.9 |
| 20260830225305 | 60 | 260 | 0.0 | 0.0 | 0.00 | 0.00 | 0.00 | 94 | 1014.2 |
| 20260830224805 | 60 | 260 | 0.0 | 0.0 | 0.00 | 0.00 | 0.00 | 93 | 1014.2 |
| 20260830223304 | 61 | 260 | 0.0 | 0.0 | 0.00 | 0.00 | 0.00 | 93 | 1014.2 |
| 20260830222804 | 61 | 260 | 0.0 | 0.0 | 0.00 | 0.00 | 0.00 | 93 | 1014.4 |
| 20260830222306 | 60 | 260 | 0.0 | 0.0 | 0.00 | 0.00 | 0.00 | 93 | 1014.4 |
| 20260830221804 | 60 | 260 | 0.0 | 0.0 | 0.00 | 0.00 | 0.00 | 94 | 1014.4 |
| 20260830221303 | 60 | 260 | 0.0 | 0.0 | 0.00 | 0.00 | 0.00 | 94 | 1014.4 |
| 20260830220304 | 60 | 260 | 0.0 | 0.0 | 0.00 | 0.00 | 0.00 | 94 | 1014.6 |
| 20260830215803 | 60 | 260 | 0.0 | 0.0 | 0.00 | 0.00 | 0.00 | 94 | 1014.6 |
| 20260830215305 | 60 | 260 | 0.0 | 0.0 | 0.00 | 0.00 | 0.00 | 93 | 1014.6 |
| 20260830214804 | 60 | 260 | 0.0 | 0.0 | 0.00 | 0.00 | 0.00 | 93 | 1014.6 |
| 20260830214304 | 60 | 260 | 0.0 | 0.0 | 0.00 | 0.00 | 0.00 | 93 | 1014.6 |
| 20260830213803 | 60 | 260 | 0.0 | 0.0 | 0.00 | 0.00 | 0.00 | 93 | 1014.6 |
| 20260830213304 | 60 | 260 | 0.0 | 0.0 | 0.00 | 0.00 | 0.00 | 93 | 1014.6 |
| 20260830212803 | 60 | 260 | 0.0 | 0.0 | 0.00 | 0.00 | 0.00 | 93 | 1014.6 |
| 20260830212306 | 60 | 260 | 0.0 | 0.0 | 0.00 | 0.00 | 0.00 | 92 | 1014.6 |
| 20260830211303 | 60 | 260 | 0.0 | 0.0 | 0.00 | 0.00 | 0.00 | 92 | 1014.6 |
| 20260830205803 | 61 | 260 | 0.0 | 0.0 | 0.00 | 0.00 | 0.00 | 92 | 1014.6 |
| 20260830205305 | 61 | 260 | 0.0 | 0.0 | 0.00 | 0.00 | 0.00 | 91 | 1014.6 |
| 20260830204804 | 61 | 260 | 0.0 | 0.0 | 0.00 | 0.00 | 0.00 | 91 | 1014.5 |
| 20260830203804 | 61 | 260 | 0.0 | 0.0 | 0.00 | 0.00 | 0.00 | 91 | 1014.8 |
| 20260830201803 | 62 | 260 | 0.0 | 0.0 | 0.00 | 0.00 | 0.00 | 89 | 1014.8 |
| 20260830201304 | 62 | 260 | 0.0 | 0.0 | 0.00 | 0.00 | 0.00 | 89 | 1014.8 |
| 20260830200804 | 62 | 260 | 0.0 | 0.0 | 0.00 | 0.00 | 0.00 | 88 | 1014.8 |